Location: Burleson Fire Department Station 2
(32.5391°N, 97.3075°W)
Time: 01:16:24
(UTC+00:00)

NOAA 15 - Pass Details

Date: 22 December 2025
Orbit: 793 x 810 km, 98.5° (Epoch: 20 January)

Event Time Altitude Azimuth Distance (km) Brightness Sun altitude
Rises 12:42:12 0° 32° (NNE) 3,298 7.9 -9.5°
Reaches altitude 10° 12:45:10 10° 49° (NE) 2,363 7.4 -9.0°
Maximum altitude 12:48:54 20° 95° (E) 1,775 7.5 -8.2°
Drops below altitude 10° 12:52:37 10° 141° (SE) 2,353 8.2 -7.5°
Sets 12:55:33 0° 158° (SSE) 3,279 8.5 -7.0°
